Regional Weather Roundup
Issued by NWS

Home | Current Version | Previous Version | Graphics & Text | Print | Product List | Glossary On
Versions: 1 2 3 4 5 6 7 8 9 10 11 12 13 14 15 16 17 18 19 20 21 22 23 24 25 26 27
000
ASUS45 KCYS 180810
RWRWY

WYOMING REGIONAL WEATHER ROUNDUP
NATIONAL WEATHER SERVICE CHEYENNE WY
200 AM MDT WED OCT 18 2017

NOTE:  "FAIR" INDICATES FEW OR NO CLOUDS BELOW 12,000 FEET
WITH NO SIGNIFICANT WEATHER AND/OR OBSTRUCTIONS TO VISIBILITY.

WYZ001-180900-
YELLOWSTONE NATIONAL PARK

CITY           SKY/WX    TMP DP  RH WIND       PRES   REMARKS
LK YELLOWSTONE NOT AVBL
W YELLOWSTONE  NOT AVBL

$$
WYZ002>013-054>058-071-098>099-180900-
NORTHERN WYOMING

CITY           SKY/WX    TMP DP  RH WIND       PRES   REMARKS
JACKSON        FAIR      48  15  26 S9        30.18R
CODY           NOT AVBL
GREYBULL       FAIR      47  25  42 E6        29.88S
WORLAND        FAIR      45  29  53 SW9       29.91S
SHERIDAN       FAIR      59  18  20 NW7       29.85R
BUFFALO        FAIR      61   9  12 CALM      29.88R
GILLETTE       FAIR      61  18  18 SW20      29.84R
HULETT         FAIR      61  23  23 SW9       29.86R
NEWCASTLE      FAIR      50  21  32 SE3       29.88R

$$
WYZ014>020-022>026-101>103-180900-
CENTRAL WYOMING

CITY           SKY/WX    TMP DP  RH WIND       PRES   REMARKS
BIG PINEY      FAIR      29   9  43 NE5       30.21S WCI  24
PINEDALE       FAIR      25  16  68 NW8       30.22S WCI  16
DUBOIS         FAIR      41  10  28 NW23      30.15R
LANDER         FAIR      56  12  17 W10G20    30.01F
RIVERTON       FAIR      47  20  34 SW5       30.02F
CASPER         FAIR      50  13  22 SW17      29.99S
DOUGLAS        FAIR      59  11  15 N3        29.94F

$$
WYZ021-027>030-104>119-180900-
SOUTHERN WYOMING

CITY           SKY/WX    TMP DP  RH WIND       PRES   REMARKS
EVANSTON       FAIR      44   7  21 SW9       30.24F
KEMMERER       FAIR      39   9  28 N5        30.24S
FORT BRIDGER   FAIR      45   5  19 SW12      30.25F
ROCK SPRINGS   FAIR      45   2  17 SW10      30.19F
DIXON          FAIR      29  16  57 CALM      30.24F
RAWLINS        FAIR      47   7  19 SW16      30.16F
SARATOGA       FAIR      37  10  32 S7        30.21F WCI  32
LARAMIE        FAIR      48  10  21 W12       30.17S
CHEYENNE       FAIR      58  11  15 W15       30.06F
TORRINGTON     FAIR      44  26  49 CALM      29.93S
PINE BLUFFS    FAIR      45  23  42 MISG      30.03F

$$




USA.gov is the U.S. government's official web portal to all federal, state and local government web resources and services.